Time,TemperatureF,DewpointF,PressureIn,WindDirection,WindDirectionDegrees,WindSpeedMPH,WindSpeedGustMPH,Humidity,HourlyPrecipIn,Conditions,Clouds,dailyrainin,SolarRadiationWatts/m^2,SoftwareType,DateUTC
2013-05-03 00:01:00,51.6,25.5,30.26,West,273,3.0,3.0,36,0.00,,---,0.00,0.00,VWS V14.01,2013-05-03 07:01:00,
2013-05-03 00:06:00,51.3,25.3,30.26,West,274,0.0,3.0,36,0.00,,---,0.00,0.00,VWS V14.01,2013-05-03 07:06:00,
2013-05-03 00:11:00,51.2,25.2,30.26,West,267,2.0,3.0,36,0.00,,---,0.00,0.00,VWS V14.01,2013-05-03 07:11:00,
2013-05-03 00:16:00,51.2,25.2,30.26,West,281,2.0,3.0,36,0.00,,---,0.00,0.00,VWS V14.01,2013-05-03 07:16:00,
2013-05-03 00:21:00,51.2,25.2,30.26,WNW,284,1.0,3.0,36,0.00,,---,0.00,0.00,VWS V14.01,2013-05-03 07:21:00,
2013-05-03 00:26:00,51.3,25.3,30.26,WSW,237,3.0,5.0,36,0.00,,---,0.00,0.00,VWS V14.01,2013-05-03 07:26:00,
2013-05-03 00:31:00,51.6,25.5,30.26,WSW,247,1.0,1.0,36,0.00,,---,0.00,0.00,VWS V14.01,2013-05-03 07:31:00,
2013-05-03 00:36:00,51.8,26.4,30.25,WSW,255,1.0,3.0,37,0.00,,---,0.00,0.00,VWS V14.01,2013-05-03 07:36:00,
2013-05-03 00:41:00,52.0,25.9,30.25,WSW,257,1.0,3.0,36,0.00,,---,0.00,0.00,VWS V14.01,2013-05-03 07:41:00,
2013-05-03 00:46:00,52.1,26.0,30.25,WSW,255,1.0,3.0,36,0.00,,---,0.00,0.00,VWS V14.01,2013-05-03 07:46:00,
2013-05-03 00:51:00,51.7,25.6,30.25,West,271,3.0,3.0,36,0.00,,---,0.00,0.00,VWS V14.01,2013-05-03 07:51:00,
2013-05-03 00:56:00,51.2,25.8,30.25,West,273,2.0,3.0,37,0.00,,---,0.00,0.00,VWS V14.01,2013-05-03 07:56:00,
2013-05-03 01:01:00,50.6,26.0,30.25,West,273,0.0,0.0,38,0.00,,---,0.00,0.00,VWS V14.01,2013-05-03 08:01:00,
2013-05-03 01:06:00,50.3,26.3,30.25,West,273,0.0,1.0,39,0.00,,---,0.00,0.00,VWS V14.01,2013-05-03 08:06:00,
2013-05-03 01:11:00,49.9,26.6,30.25,ESE,117,0.0,2.0,40,0.00,,---,0.00,0.00,VWS V14.01,2013-05-03 08:11:00,
2013-05-03 01:16:00,49.7,25.8,30.24,NW,313,0.0,2.0,39,0.00,,---,0.00,0.00,VWS V14.01,2013-05-03 08:16:00,
2013-05-03 01:21:00,49.7,25.8,30.25,NW,320,0.0,2.0,39,0.00,,---,0.00,0.00,VWS V14.01,2013-05-03 08:21:00,
2013-05-03 01:26:00,49.7,26.4,30.24,SSW,204,0.0,2.0,40,0.00,,---,0.00,0.00,VWS V14.01,2013-05-03 08:26:00,
2013-05-03 01:31:00,49.7,26.4,30.24,South,190,0.0,0.0,40,0.00,,---,0.00,0.00,VWS V14.01,2013-05-03 08:31:00,
2013-05-03 01:36:00,50.0,26.6,30.24,WSW,245,0.0,2.0,40,0.00,,---,0.00,0.00,VWS V14.01,2013-05-03 08:36:00,
2013-05-03 01:41:00,50.2,26.8,30.24,West,266,0.0,3.0,40,0.00,,---,0.00,0.00,VWS V14.01,2013-05-03 08:41:00,
2013-05-03 01:46:00,50.4,27.0,30.24,West,266,0.0,3.0,40,0.00,,---,0.00,0.00,VWS V14.01,2013-05-03 08:46:00,
2013-05-03 01:51:00,50.5,27.1,30.24,West,266,0.0,3.0,40,0.00,,---,0.00,0.00,VWS V14.01,2013-05-03 08:51:00,
2013-05-03 01:56:00,50.5,27.1,30.24,NE,54,1.0,3.0,40,0.00,,---,0.00,0.00,VWS V14.01,2013-05-03 08:56:00,
2013-05-03 02:01:00,50.7,26.7,30.24,NNE,20,1.0,1.0,39,0.00,,---,0.00,0.00,VWS V14.01,2013-05-03 09:01:00,
2013-05-03 02:06:00,50.9,26.8,30.23,NNW,333,0.0,2.0,39,0.00,,---,0.00,0.00,VWS V14.01,2013-05-03 09:06:00,
2013-05-03 02:11:00,50.9,26.8,30.23,NW,314,2.0,2.0,39,0.00,,---,0.00,0.00,VWS V14.01,2013-05-03 09:11:00,
2013-05-03 02:16:00,50.7,26.7,30.22,NW,319,0.0,2.0,39,0.00,,---,0.00,0.00,VWS V14.01,2013-05-03 09:16:00,
2013-05-03 02:21:00,50.5,27.1,30.22,NW,319,0.0,2.0,40,0.00,,---,0.00,0.00,VWS V14.01,2013-05-03 09:21:00,
2013-05-03 02:26:00,50.4,27.0,30.22,NW,308,0.0,3.0,40,0.00,,---,0.00,0.00,VWS V14.01,2013-05-03 09:26:00,
2013-05-03 02:31:00,50.3,26.9,30.22,NW,308,0.0,0.0,40,0.00,,---,0.00,0.00,VWS V14.01,2013-05-03 09:31:00,
2013-05-03 02:36:00,50.3,26.9,30.22,NNW,343,0.0,2.0,40,0.00,,---,0.00,0.00,VWS V14.01,2013-05-03 09:36:00,
2013-05-03 02:41:00,50.3,26.9,30.22,North,355,0.0,2.0,40,0.00,,---,0.00,0.00,VWS V14.01,2013-05-03 09:41:00,
2013-05-03 02:46:00,50.3,26.9,30.22,NNW,327,1.0,2.0,40,0.00,,---,0.00,0.00,VWS V14.01,2013-05-03 09:46:00,
2013-05-03 02:51:00,50.2,26.8,30.21,NNW,337,1.0,2.0,40,0.00,,---,0.00,0.00,VWS V14.01,2013-05-03 09:51:00,
2013-05-03 02:56:00,50.1,26.7,30.21,NNW,340,1.0,3.0,40,0.00,,---,0.00,0.00,VWS V14.01,2013-05-03 09:56:00,
2013-05-03 03:01:00,50.1,27.3,30.21,NW,317,1.0,1.0,41,0.00,,---,0.00,0.00,VWS V14.01,2013-05-03 10:01:00,
2013-05-03 03:06:00,49.8,27.6,30.21,NW,315,0.0,2.0,42,0.00,,---,0.00,0.00,VWS V14.01,2013-05-03 10:06:00,
2013-05-03 03:11:00,49.4,27.3,30.21,WNW,298,0.0,2.0,42,0.00,,---,0.00,0.00,VWS V14.01,2013-05-03 10:11:00,
2013-05-03 03:16:00,49.2,27.1,30.21,North,5,0.0,2.0,42,0.00,,---,0.00,0.00,VWS V14.01,2013-05-03 10:16:00,
2013-05-03 03:21:00,49.0,26.9,30.21,NE,34,0.0,2.0,42,0.00,,---,0.00,0.00,VWS V14.01,2013-05-03 10:21:00,
2013-05-03 03:26:00,48.9,26.8,30.21,NNW,344,0.0,2.0,42,0.00,,---,0.00,0.00,VWS V14.01,2013-05-03 10:26:00,
2013-05-03 03:31:00,48.8,26.7,30.22,NNW,347,0.0,0.0,42,0.00,,---,0.00,0.00,VWS V14.01,2013-05-03 10:31:00,
2013-05-03 03:36:00,48.6,26.6,30.21,NNW,346,1.0,1.0,42,0.00,,---,0.00,0.00,VWS V14.01,2013-05-03 10:36:00,
2013-05-03 03:41:00,48.4,27.0,30.21,NNW,344,1.0,2.0,43,0.00,,---,0.00,0.00,VWS V14.01,2013-05-03 10:41:00,
2013-05-03 03:46:00,48.1,26.7,30.21,NW,311,0.0,2.0,43,0.00,,---,0.00,0.00,VWS V14.01,2013-05-03 10:46:00,
2013-05-03 03:51:00,47.9,26.5,30.22,NW,311,0.0,2.0,43,0.00,,---,0.00,0.00,VWS V14.01,2013-05-03 10:51:00,
2013-05-03 03:56:00,47.7,26.9,30.22,NW,311,0.0,2.0,44,0.00,,---,0.00,0.00,VWS V14.01,2013-05-03 10:56:00,
2013-05-03 04:01:00,47.6,26.8,30.22,NW,311,0.0,0.0,44,0.00,,---,0.00,0.00,VWS V14.01,2013-05-03 11:01:00,
2013-05-03 04:06:00,47.6,26.8,30.22,NW,311,1.0,1.0,44,0.00,,---,0.00,0.00,VWS V14.01,2013-05-03 11:06:00,
2013-05-03 04:11:00,47.4,27.1,30.22,NW,311,0.0,1.0,45,0.00,,---,0.00,0.00,VWS V14.01,2013-05-03 11:11:00,
2013-05-03 04:16:00,47.2,27.0,30.21,NW,311,0.0,1.0,45,0.00,,---,0.00,0.00,VWS V14.01,2013-05-03 11:16:00,
2013-05-03 04:21:00,47.2,27.0,30.22,NW,311,0.0,1.0,45,0.00,,---,0.00,0.00,VWS V14.01,2013-05-03 11:21:00,
2013-05-03 04:26:00,47.2,27.0,30.22,NW,311,0.0,2.0,45,0.00,,---,0.00,0.00,VWS V14.01,2013-05-03 11:26:00,
2013-05-03 04:31:00,47.3,27.0,30.21,NW,311,0.0,0.0,45,0.00,,---,0.00,0.00,VWS V14.01,2013-05-03 11:31:00,
2013-05-03 04:36:00,47.2,27.0,30.21,NW,311,1.0,2.0,45,0.00,,---,0.00,0.00,VWS V14.01,2013-05-03 11:36:00,
2013-05-03 04:41:00,47.2,27.0,30.21,NW,311,2.0,2.0,45,0.00,,---,0.00,0.00,VWS V14.01,2013-05-03 11:41:00,
2013-05-03 04:46:00,47.1,26.9,30.21,NW,311,0.0,2.0,45,0.00,,---,0.00,0.00,VWS V14.01,2013-05-03 11:46:00,
2013-05-03 04:51:00,47.0,26.8,30.22,NW,311,0.0,2.0,45,0.00,,---,0.00,0.00,VWS V14.01,2013-05-03 11:51:00,
2013-05-03 04:56:00,46.9,27.2,30.21,NW,308,2.0,2.0,46,0.00,,---,0.00,0.00,VWS V14.01,2013-05-03 11:56:00,
2013-05-03 05:02:00,46.7,27.0,30.21,West,281,1.0,1.0,46,0.00,,---,0.00,0.00,VWS V14.01,2013-05-03 12:02:00,
2013-05-03 05:07:00,46.4,26.8,30.22,West,281,2.0,3.0,46,0.00,,---,0.00,0.00,VWS V14.01,2013-05-03 12:07:00,
2013-05-03 05:12:00,46.3,26.7,30.22,WSW,257,3.0,3.0,46,0.00,,---,0.00,0.00,VWS V14.01,2013-05-03 12:12:00,
2013-05-03 05:17:00,46.3,26.7,30.21,WSW,254,2.0,3.0,46,0.00,,---,0.00,0.00,VWS V14.01,2013-05-03 12:17:00,
2013-05-03 05:22:00,46.4,26.8,30.21,West,262,3.0,3.0,46,0.00,,---,0.00,0.00,VWS V14.01,2013-05-03 12:22:00,
2013-05-03 05:27:00,46.4,26.8,30.21,West,271,3.0,3.0,46,0.00,,---,0.00,0.00,VWS V14.01,2013-05-03 12:27:00,
2013-05-03 05:32:00,46.3,26.7,30.21,West,264,1.0,3.0,46,0.00,,---,0.00,0.00,VWS V14.01,2013-05-03 12:32:00,
2013-05-03 05:37:00,46.3,26.7,30.22,West,264,1.0,3.0,46,0.00,,---,0.00,0.00,VWS V14.01,2013-05-03 12:37:00,
2013-05-03 05:42:00,46.1,26.5,30.22,West,264,1.0,3.0,46,0.00,,---,0.00,0.00,VWS V14.01,2013-05-03 12:42:00,
2013-05-03 05:47:00,45.8,26.7,30.22,West,264,2.0,3.0,47,0.00,,---,0.00,0.00,VWS V14.01,2013-05-03 12:47:00,
2013-05-03 05:52:00,45.5,26.5,30.21,West,277,2.0,3.0,47,0.00,,---,0.00,0.00,VWS V14.01,2013-05-03 12:52:00,
2013-05-03 05:57:00,45.4,26.4,30.22,West,280,2.0,3.0,47,0.00,,---,0.00,5.00,VWS V14.01,2013-05-03 12:57:00,
2013-05-03 06:02:00,45.3,26.8,30.21,WNW,291,1.0,3.0,48,0.00,,---,0.00,7.00,VWS V14.01,2013-05-03 13:02:00,
2013-05-03 06:07:00,45.3,26.8,30.21,WNW,291,0.0,3.0,48,0.00,,---,0.00,11.00,VWS V14.01,2013-05-03 13:07:00,
2013-05-03 06:12:00,45.2,27.2,30.21,WNW,291,1.0,3.0,49,0.00,,---,0.00,12.00,VWS V14.01,2013-05-03 13:12:00,
2013-05-03 06:17:00,45.0,27.5,30.21,WNW,291,1.0,3.0,50,0.00,,---,0.00,14.00,VWS V14.01,2013-05-03 13:17:00,
2013-05-03 06:22:00,44.9,27.9,30.21,WNW,285,1.0,3.0,51,0.00,,---,0.00,16.00,VWS V14.01,2013-05-03 13:22:00,
2013-05-03 06:27:00,44.9,28.4,30.21,WNW,285,1.0,3.0,52,0.00,,---,0.00,18.00,VWS V14.01,2013-05-03 13:27:00,
2013-05-03 06:32:00,44.9,28.4,30.21,WNW,285,0.0,1.0,52,0.00,,---,0.00,19.00,VWS V14.01,2013-05-03 13:32:00,
2013-05-03 06:37:00,45.0,28.9,30.21,WNW,285,1.0,2.0,53,0.00,,---,0.00,19.00,VWS V14.01,2013-05-03 13:37:00,
2013-05-03 06:42:00,45.1,29.0,30.20,WNW,284,0.0,2.0,53,0.00,,---,0.00,21.00,VWS V14.01,2013-05-03 13:42:00,
2013-05-03 06:47:00,45.2,29.6,30.20,WNW,285,1.0,2.0,54,0.00,,---,0.00,23.00,VWS V14.01,2013-05-03 13:47:00,
2013-05-03 06:52:00,45.2,30.5,30.21,WNW,285,0.0,2.0,56,0.00,,---,0.00,25.00,VWS V14.01,2013-05-03 13:52:00,
2013-05-03 06:57:00,45.2,30.5,30.20,WNW,285,0.0,2.0,56,0.00,,---,0.00,25.00,VWS V14.01,2013-05-03 13:57:00,
2013-05-03 07:02:00,45.3,31.0,30.21,WNW,285,0.0,0.0,57,0.00,,---,0.00,30.00,VWS V14.01,2013-05-03 14:02:00,
2013-05-03 07:07:00,45.4,31.5,30.21,WNW,285,0.0,0.0,58,0.00,,---,0.00,37.00,VWS V14.01,2013-05-03 14:07:00,
2013-05-03 07:12:00,45.5,31.2,30.21,WNW,284,0.0,0.0,57,0.00,,---,0.00,28.00,VWS V14.01,2013-05-03 14:12:00,
2013-05-03 07:17:00,45.7,30.9,30.21,WNW,285,0.0,0.0,56,0.00,,---,0.00,30.00,VWS V14.01,2013-05-03 14:17:00,
2013-05-03 07:22:00,46.0,31.2,30.21,WNW,285,0.0,0.0,56,0.00,,---,0.00,30.00,VWS V14.01,2013-05-03 14:22:00,
2013-05-03 07:27:00,46.2,30.9,30.21,WNW,285,0.0,0.0,55,0.00,,---,0.00,32.00,VWS V14.01,2013-05-03 14:27:00,
2013-05-03 07:32:00,46.5,30.8,30.21,NW,321,0.0,1.0,54,0.00,,---,0.00,32.00,VWS V14.01,2013-05-03 14:32:00,
2013-05-03 07:37:00,46.7,31.0,30.21,North,355,0.0,2.0,54,0.00,,---,0.00,33.00,VWS V14.01,2013-05-03 14:37:00,
2013-05-03 07:42:00,46.9,31.1,30.21,North,355,1.0,2.0,54,0.00,,---,0.00,33.00,VWS V14.01,2013-05-03 14:42:00,
2013-05-03 07:47:00,47.3,31.5,30.21,North,355,1.0,2.0,54,0.00,,---,0.00,35.00,VWS V14.01,2013-05-03 14:47:00,
2013-05-03 07:52:00,47.9,31.6,30.21,NNW,336,0.0,2.0,53,0.00,,---,0.00,37.00,VWS V14.01,2013-05-03 14:52:00,
2013-05-03 07:57:00,48.5,31.2,30.21,NNE,16,0.0,2.0,51,0.00,,---,0.00,40.00,VWS V14.01,2013-05-03 14:57:00,
2013-05-03 08:02:00,49.0,31.7,30.21,NNE,16,0.0,0.0,51,0.00,,---,0.00,181.00,VWS V14.01,2013-05-03 15:02:00,
2013-05-03 08:07:00,50.0,31.1,30.21,NNE,16,0.0,0.0,48,0.00,,---,0.00,234.00,VWS V14.01,2013-05-03 15:07:00,
2013-05-03 08:12:00,50.6,31.1,30.21,East,86,0.0,0.0,47,0.00,,---,0.00,227.00,VWS V14.01,2013-05-03 15:12:00,
2013-05-03 08:17:00,51.6,32.0,30.21,South,185,0.0,1.0,47,0.00,,---,0.00,130.00,VWS V14.01,2013-05-03 15:17:00,
2013-05-03 08:22:00,53.0,32.8,30.21,SW,219,0.0,3.0,46,0.00,,---,0.00,42.00,VWS V14.01,2013-05-03 15:22:00,
2013-05-03 08:27:00,53.6,32.2,30.21,South,181,1.0,3.0,44,0.00,,---,0.00,42.00,VWS V14.01,2013-05-03 15:27:00,
2013-05-03 08:32:00,54.3,32.9,30.21,WSW,254,1.0,4.0,44,0.00,,---,0.00,54.00,VWS V14.01,2013-05-03 15:32:00,
2013-05-03 08:37:00,55.2,32.5,30.21,SSW,200,2.0,4.0,42,0.00,,---,0.00,53.00,VWS V14.01,2013-05-03 15:37:00,
2013-05-03 08:42:00,55.8,32.5,30.21,WSW,258,1.0,4.0,41,0.00,,---,0.00,81.00,VWS V14.01,2013-05-03 15:42:00,
2013-05-03 08:47:00,56.0,32.0,30.21,West,259,2.0,4.0,40,0.00,,---,0.00,44.00,VWS V14.01,2013-05-03 15:47:00,
2013-05-03 08:52:00,56.3,31.7,30.21,SW,227,4.0,4.0,39,0.00,,---,0.00,46.00,VWS V14.01,2013-05-03 15:52:00,
2013-05-03 08:57:00,56.5,32.5,30.21,SSW,205,0.0,4.0,40,0.00,,---,0.00,49.00,VWS V14.01,2013-05-03 15:57:00,
2013-05-03 09:02:00,56.8,32.8,30.20,SSW,211,2.0,4.0,40,0.00,,---,0.00,47.00,VWS V14.01,2013-05-03 16:02:00,
2013-05-03 09:07:00,57.0,31.7,30.20,SSE,166,0.0,4.0,38,0.00,,---,0.00,63.00,VWS V14.01,2013-05-03 16:07:00,
2013-05-03 09:12:00,57.2,31.2,30.20,South,186,2.0,4.0,37,0.00,,---,0.00,540.00,VWS V14.01,2013-05-03 16:12:00,
2013-05-03 09:17:00,57.3,31.9,30.20,SSW,200,0.0,4.0,38,0.00,,---,0.00,555.00,VWS V14.01,2013-05-03 16:17:00,
2013-05-03 09:22:00,57.6,31.5,30.20,SSE,159,3.0,4.0,37,0.00,,---,0.00,570.00,VWS V14.01,2013-05-03 16:22:00,
2013-05-03 09:27:00,57.8,31.7,30.19,SSE,153,0.0,4.0,37,0.00,,---,0.00,584.00,VWS V14.01,2013-05-03 16:27:00,
2013-05-03 09:32:00,58.2,31.4,30.19,SW,236,4.0,5.0,36,0.00,,---,0.00,601.00,VWS V14.01,2013-05-03 16:32:00,
2013-05-03 09:37:00,58.6,31.8,30.20,SW,223,2.0,5.0,36,0.00,,---,0.00,615.00,VWS V14.01,2013-05-03 16:37:00,
2013-05-03 09:42:00,59.2,31.6,30.20,West,264,2.0,5.0,35,0.00,,---,0.00,628.00,VWS V14.01,2013-05-03 16:42:00,
2013-05-03 09:47:00,59.8,31.4,30.19,WSW,250,2.0,7.0,34,0.00,,---,0.00,643.00,VWS V14.01,2013-05-03 16:47:00,
2013-05-03 09:52:00,59.8,30.7,30.19,West,261,3.0,7.0,33,0.00,,---,0.00,656.00,VWS V14.01,2013-05-03 16:52:00,
2013-05-03 09:57:00,59.9,30.8,30.19,SSW,203,5.0,8.0,33,0.00,,---,0.00,668.00,VWS V14.01,2013-05-03 16:57:00,
2013-05-03 10:02:00,60.1,30.9,30.19,SSE,168,3.0,7.0,33,0.00,,---,0.00,682.00,VWS V14.01,2013-05-03 17:02:00,
2013-05-03 10:07:00,60.1,31.7,30.19,WSW,257,6.0,7.0,34,0.00,,---,0.00,694.00,VWS V14.01,2013-05-03 17:07:00,
2013-05-03 10:12:00,60.3,31.1,30.19,SW,234,2.0,7.0,33,0.00,,---,0.00,705.00,VWS V14.01,2013-05-03 17:12:00,
2013-05-03 10:17:00,60.5,32.0,30.20,South,176,2.0,7.0,34,0.00,,---,0.00,719.00,VWS V14.01,2013-05-03 17:17:00,
2013-05-03 10:22:00,60.9,32.4,30.19,South,191,4.0,7.0,34,0.00,,---,0.00,729.00,VWS V14.01,2013-05-03 17:22:00,
2013-05-03 10:27:00,61.1,31.0,30.19,SW,228,2.0,7.0,32,0.00,,---,0.00,738.00,VWS V14.01,2013-05-03 17:27:00,
2013-05-03 10:32:00,61.3,30.4,30.19,SW,234,3.0,8.0,31,0.00,,---,0.00,752.00,VWS V14.01,2013-05-03 17:32:00,
2013-05-03 10:37:00,61.6,29.9,30.20,South,181,6.0,9.0,30,0.00,,---,0.00,765.00,VWS V14.01,2013-05-03 17:37:00,
2013-05-03 10:42:00,61.9,30.1,30.20,SSW,211,2.0,9.0,30,0.00,,---,0.00,775.00,VWS V14.01,2013-05-03 17:42:00,
2013-05-03 10:47:00,61.9,28.5,30.19,SSE,161,3.0,9.0,28,0.00,,---,0.00,788.00,VWS V14.01,2013-05-03 17:47:00,
2013-05-03 10:52:00,62.1,29.5,30.20,WSW,240,5.0,9.0,29,0.00,,---,0.00,800.00,VWS V14.01,2013-05-03 17:52:00,
2013-05-03 10:57:00,62.2,28.7,30.20,SSW,202,5.0,9.0,28,0.00,,---,0.00,809.00,VWS V14.01,2013-05-03 17:57:00,
2013-05-03 11:02:00,62.2,29.6,30.20,WSW,238,5.0,8.0,29,0.00,,---,0.00,812.00,VWS V14.01,2013-05-03 18:02:00,
2013-05-03 11:07:00,62.5,30.7,30.19,SW,220,4.0,10.0,30,0.00,,---,0.00,824.00,VWS V14.01,2013-05-03 18:07:00,
2013-05-03 11:12:00,62.8,30.9,30.20,SSW,200,7.0,10.0,30,0.00,,---,0.00,833.00,VWS V14.01,2013-05-03 18:12:00,
2013-05-03 11:17:00,63.0,30.3,30.20,SSW,207,2.0,10.0,29,0.00,,---,0.00,840.00,VWS V14.01,2013-05-03 18:17:00,
2013-05-03 11:22:00,63.1,30.4,30.20,SSW,204,6.0,10.0,29,0.00,,---,0.00,849.00,VWS V14.01,2013-05-03 18:22:00,
2013-05-03 11:27:00,63.3,29.7,30.20,WSW,247,2.0,10.0,28,0.00,,---,0.00,860.00,VWS V14.01,2013-05-03 18:27:00,
2013-05-03 11:32:00,63.3,28.8,30.20,SE,130,0.0,6.0,27,0.00,,---,0.00,867.00,VWS V14.01,2013-05-03 18:32:00,
2013-05-03 11:37:00,63.1,29.5,30.20,SSW,202,3.0,6.0,28,0.00,,---,0.00,874.00,VWS V14.01,2013-05-03 18:37:00,
2013-05-03 11:42:00,63.1,31.2,30.20,SW,214,3.0,8.0,30,0.00,,---,0.00,875.00,VWS V14.01,2013-05-03 18:42:00,
2013-05-03 11:47:00,63.2,30.4,30.19,South,184,0.0,8.0,29,0.00,,---,0.00,889.00,VWS V14.01,2013-05-03 18:47:00,
2013-05-03 11:52:00,63.7,30.9,30.20,SSE,159,2.0,9.0,29,0.00,,---,0.00,886.00,VWS V14.01,2013-05-03 18:52:00,
2013-05-03 11:57:00,64.1,32.1,30.19,SW,236,3.0,9.0,30,0.00,,---,0.00,902.00,VWS V14.01,2013-05-03 18:57:00,
2013-05-03 12:02:00,64.4,30.6,30.20,SW,234,3.0,6.0,28,0.00,,---,0.00,904.00,VWS V14.01,2013-05-03 19:02:00,
2013-05-03 12:07:00,64.7,29.0,30.20,SSE,163,4.0,9.0,26,0.00,,---,0.00,907.00,VWS V14.01,2013-05-03 19:07:00,
2013-05-03 12:12:00,64.9,30.1,30.20,SW,226,3.0,9.0,27,0.00,,---,0.00,912.00,VWS V14.01,2013-05-03 19:12:00,
2013-05-03 12:17:00,65.1,30.3,30.19,SW,222,2.0,9.0,27,0.00,,---,0.00,921.00,VWS V14.01,2013-05-03 19:17:00,
2013-05-03 12:22:00,65.0,28.4,30.19,WSW,252,2.0,9.0,25,0.00,,---,0.00,925.00,VWS V14.01,2013-05-03 19:22:00,
2013-05-03 12:27:00,65.0,29.3,30.19,SW,220,3.0,9.0,26,0.00,,---,0.00,928.00,VWS V14.01,2013-05-03 19:27:00,
2013-05-03 12:32:00,65.0,29.3,30.19,South,175,5.0,10.0,26,0.00,,---,0.00,926.00,VWS V14.01,2013-05-03 19:32:00,
2013-05-03 12:37:00,65.5,29.7,30.19,West,261,1.0,10.0,26,0.00,,---,0.00,928.00,VWS V14.01,2013-05-03 19:37:00,
2013-05-03 12:42:00,66.1,28.3,30.19,SSW,197,3.0,11.0,24,0.00,,---,0.00,933.00,VWS V14.01,2013-05-03 19:42:00,
2013-05-03 12:47:00,66.2,26.3,30.19,SW,215,6.0,11.0,22,0.00,,---,0.00,933.00,VWS V14.01,2013-05-03 19:47:00,
2013-05-03 12:52:00,66.2,26.3,30.19,South,180,1.0,11.0,22,0.00,,---,0.00,933.00,VWS V14.01,2013-05-03 19:52:00,
2013-05-03 12:57:00,66.7,28.8,30.18,SW,223,4.0,11.0,24,0.00,,---,0.00,935.00,VWS V14.01,2013-05-03 19:57:00,
2013-05-03 13:02:00,66.6,26.6,30.18,SW,232,5.0,7.0,22,0.00,,---,0.00,939.00,VWS V14.01,2013-05-03 20:02:00,
2013-05-03 13:07:00,66.7,27.8,30.18,SSW,213,7.0,9.0,23,0.00,,---,0.00,939.00,VWS V14.01,2013-05-03 20:07:00,
2013-05-03 13:12:00,67.3,30.3,30.18,SSE,167,5.0,9.0,25,0.00,,---,0.00,933.00,VWS V14.01,2013-05-03 20:12:00,
2013-05-03 13:17:00,67.7,27.5,30.18,SW,219,1.0,9.0,22,0.00,,---,0.00,939.00,VWS V14.01,2013-05-03 20:17:00,
2013-05-03 13:22:00,68.0,27.8,30.18,SW,234,12.0,12.0,22,0.00,,---,0.00,937.00,VWS V14.01,2013-05-03 20:22:00,
2013-05-03 13:27:00,67.4,29.4,30.18,SSW,209,2.0,12.0,24,0.00,,---,0.00,935.00,VWS V14.01,2013-05-03 20:27:00,
2013-05-03 13:32:00,67.9,27.7,30.18,SSW,200,2.0,7.0,22,0.00,,---,0.00,932.00,VWS V14.01,2013-05-03 20:32:00,
2013-05-03 13:37:00,67.9,29.8,30.17,SW,214,8.0,13.0,24,0.00,,---,0.00,928.00,VWS V14.01,2013-05-03 20:37:00,
2013-05-03 13:42:00,68.0,28.9,30.17,SSE,165,4.0,13.0,23,0.00,,---,0.00,921.00,VWS V14.01,2013-05-03 20:42:00,
2013-05-03 13:47:00,68.6,29.4,30.17,SSW,194,2.0,13.0,23,0.00,,---,0.00,919.00,VWS V14.01,2013-05-03 20:47:00,
2013-05-03 13:52:00,68.7,28.4,30.17,SW,221,3.0,13.0,22,0.00,,---,0.00,919.00,VWS V14.01,2013-05-03 20:52:00,
2013-05-03 13:57:00,68.1,28.9,30.17,WSW,242,6.0,13.0,23,0.00,,---,0.00,912.00,VWS V14.01,2013-05-03 20:57:00,
2013-05-03 14:02:00,68.0,29.9,30.17,SSE,163,6.0,6.0,24,0.00,,---,0.00,909.00,VWS V14.01,2013-05-03 21:02:00,
2013-05-03 14:07:00,68.8,30.6,30.17,SW,220,9.0,10.0,24,0.00,,---,0.00,912.00,VWS V14.01,2013-05-03 21:07:00,
2013-05-03 14:11:00,69.5,30.1,30.17,South,176,8.0,10.0,23,0.00,,---,0.00,905.00,VWS V14.01,2013-05-03 21:11:00,
2013-05-03 14:17:00,69.3,28.9,30.17,WSW,242,3.0,10.0,22,0.00,,---,0.00,900.00,VWS V14.01,2013-05-03 21:17:00,
2013-05-03 14:22:00,69.0,28.6,30.17,West,260,12.0,12.0,22,0.00,,---,0.00,893.00,VWS V14.01,2013-05-03 21:22:00,
2013-05-03 14:27:00,68.9,28.5,30.17,SW,227,1.0,12.0,22,0.00,,---,0.00,879.00,VWS V14.01,2013-05-03 21:27:00,
2013-05-03 14:31:00,68.9,30.6,30.16,ESE,115,11.0,11.0,24,0.00,,---,0.00,874.00,VWS V14.01,2013-05-03 21:31:00,
2013-05-03 14:36:00,70.0,31.6,30.16,ESE,112,4.0,13.0,24,0.00,,---,0.00,875.00,VWS V14.01,2013-05-03 21:36:00,
2013-05-03 14:41:00,70.4,30.9,30.16,ESE,104,4.0,13.0,23,0.00,,---,0.00,867.00,VWS V14.01,2013-05-03 21:41:00,
2013-05-03 14:46:00,70.8,31.2,30.16,South,175,6.0,13.0,23,0.00,,---,0.00,854.00,VWS V14.01,2013-05-03 21:46:00,
2013-05-03 14:51:00,70.6,31.0,30.16,ESE,105,4.0,13.0,23,0.00,,---,0.00,844.00,VWS V14.01,2013-05-03 21:51:00,
2013-05-03 14:56:00,70.6,32.1,30.16,ESE,121,3.0,14.0,24,0.00,,---,0.00,835.00,VWS V14.01,2013-05-03 21:56:00,
2013-05-03 15:01:00,71.0,32.4,30.16,SSE,148,4.0,7.0,24,0.00,,---,0.00,826.00,VWS V14.01,2013-05-03 22:01:00,
2013-05-03 15:06:00,70.8,31.2,30.15,ENE,69,7.0,13.0,23,0.00,,---,0.00,823.00,VWS V14.01,2013-05-03 22:06:00,
2013-05-03 15:11:00,70.5,31.0,30.15,ENE,77,4.0,13.0,23,0.00,,---,0.00,809.00,VWS V14.01,2013-05-03 22:11:00,
2013-05-03 15:16:00,69.6,31.2,30.15,NE,52,6.0,13.0,24,0.00,,---,0.00,802.00,VWS V14.01,2013-05-03 22:16:00,
2013-05-03 15:21:00,69.2,30.9,30.15,NE,48,4.0,14.0,24,0.00,,---,0.00,798.00,VWS V14.01,2013-05-03 22:21:00,
2013-05-03 15:26:00,69.0,31.8,30.14,NE,55,7.0,14.0,25,0.00,,---,0.00,782.00,VWS V14.01,2013-05-03 22:26:00,
2013-05-03 15:31:00,69.4,31.1,30.14,NE,54,3.0,8.0,24,0.00,,---,0.00,775.00,VWS V14.01,2013-05-03 22:31:00,
2013-05-03 15:36:00,70.3,32.8,30.14,SSE,166,5.0,8.0,25,0.00,,---,0.00,761.00,VWS V14.01,2013-05-03 22:36:00,
2013-05-03 15:41:00,70.5,32.0,30.14,SSW,213,5.0,13.0,24,0.00,,---,0.00,747.00,VWS V14.01,2013-05-03 22:41:00,
2013-05-03 15:46:00,70.5,33.0,30.14,NE,48,3.0,13.0,25,0.00,,---,0.00,738.00,VWS V14.01,2013-05-03 22:46:00,
2013-05-03 15:51:00,71.1,32.5,30.14,NE,43,3.0,13.0,24,0.00,,---,0.00,731.00,VWS V14.01,2013-05-03 22:51:00,
2013-05-03 15:56:00,71.1,31.5,30.14,ENE,58,3.0,13.0,23,0.00,,---,0.00,717.00,VWS V14.01,2013-05-03 22:56:00,
2013-05-03 16:01:00,70.6,29.9,30.14,NE,44,5.0,9.0,22,0.00,,---,0.00,700.00,VWS V14.01,2013-05-03 23:01:00,
2013-05-03 16:06:00,69.6,33.2,30.13,NE,37,1.0,11.0,26,0.00,,---,0.00,691.00,VWS V14.01,2013-05-03 23:06:00,
2013-05-03 16:11:00,70.3,32.8,30.13,NE,50,3.0,11.0,25,0.00,,---,0.00,675.00,VWS V14.01,2013-05-03 23:11:00,
2013-05-03 16:16:00,70.4,31.9,30.13,NE,37,6.0,11.0,24,0.00,,---,0.00,668.00,VWS V14.01,2013-05-03 23:16:00,
2013-05-03 16:21:00,70.7,31.1,30.14,ENE,59,2.0,14.0,23,0.00,,---,0.00,652.00,VWS V14.01,2013-05-03 23:21:00,
2013-05-03 16:26:00,70.8,32.3,30.13,NE,55,2.0,14.0,24,0.00,,---,0.00,640.00,VWS V14.01,2013-05-03 23:26:00,
2013-05-03 16:31:00,71.0,30.3,30.13,NE,53,2.0,5.0,22,0.00,,---,0.00,626.00,VWS V14.01,2013-05-03 23:31:00,
2013-05-03 16:36:00,70.5,32.0,30.13,NNE,32,4.0,9.0,24,0.00,,---,0.00,612.00,VWS V14.01,2013-05-03 23:36:00,
2013-05-03 16:41:00,70.7,30.0,30.13,NE,53,9.0,11.0,22,0.00,,---,0.00,596.00,VWS V14.01,2013-05-03 23:41:00,
2013-05-03 16:46:00,70.4,31.9,30.13,NE,39,2.0,11.0,24,0.00,,---,0.00,582.00,VWS V14.01,2013-05-03 23:46:00,
2013-05-03 16:51:00,70.6,29.9,30.13,NE,42,2.0,11.0,22,0.00,,---,0.00,566.00,VWS V14.01,2013-05-03 23:51:00,
2013-05-03 16:56:00,70.4,28.6,30.14,NE,46,9.0,11.0,21,0.00,,---,0.00,552.00,VWS V14.01,2013-05-03 23:56:00,
2013-05-03 17:01:00,70.7,28.9,30.14,ENE,59,8.0,9.0,21,0.00,,---,0.00,534.00,VWS V14.01,2013-05-04 00:01:00,
2013-05-03 17:06:00,71.0,29.1,30.14,NE,38,4.0,11.0,21,0.00,,---,0.00,524.00,VWS V14.01,2013-05-04 00:06:00,
2013-05-03 17:11:00,71.2,28.1,30.13,NE,42,5.0,11.0,20,0.00,,---,0.00,506.00,VWS V14.01,2013-05-04 00:11:00,
2013-05-03 17:16:00,70.1,26.0,30.14,NE,56,6.0,13.0,19,0.00,,---,0.00,490.00,VWS V14.01,2013-05-04 00:16:00,
2013-05-03 17:21:00,69.5,27.9,30.14,NE,45,5.0,13.0,21,0.00,,---,0.00,476.00,VWS V14.01,2013-05-04 00:21:00,
2013-05-03 17:26:00,69.2,28.8,30.14,NE,55,2.0,13.0,22,0.00,,---,0.00,462.00,VWS V14.01,2013-05-04 00:26:00,
2013-05-03 17:31:00,69.5,30.1,30.14,NE,38,2.0,8.0,23,0.00,,---,0.00,445.00,VWS V14.01,2013-05-04 00:31:00,
2013-05-03 17:36:00,69.5,27.9,30.14,NE,44,6.0,11.0,21,0.00,,---,0.00,432.00,VWS V14.01,2013-05-04 00:36:00,
2013-05-03 17:41:00,68.9,27.4,30.13,NE,43,6.0,11.0,21,0.00,,---,0.00,413.00,VWS V14.01,2013-05-04 00:41:00,
2013-05-03 17:46:00,68.8,29.5,30.13,NE,53,6.0,11.0,23,0.00,,---,0.00,397.00,VWS V14.01,2013-05-04 00:46:00,
2013-05-03 17:51:00,68.7,29.4,30.13,NE,41,5.0,11.0,23,0.00,,---,0.00,380.00,VWS V14.01,2013-05-04 00:51:00,
2013-05-03 17:56:00,68.5,29.3,30.13,NE,42,2.0,11.0,23,0.00,,---,0.00,367.00,VWS V14.01,2013-05-04 00:56:00,
2013-05-03 18:01:00,68.2,30.1,30.13,North,360,3.0,8.0,24,0.00,,---,0.00,350.00,VWS V14.01,2013-05-04 01:01:00,
2013-05-03 18:06:00,68.2,30.1,30.13,NE,36,3.0,12.0,24,0.00,,---,0.00,334.00,VWS V14.01,2013-05-04 01:06:00,
2013-05-03 18:11:00,68.5,31.3,30.13,NE,36,4.0,12.0,25,0.00,,---,0.00,315.00,VWS V14.01,2013-05-04 01:11:00,
2013-05-03 18:16:00,68.7,30.5,30.13,NE,38,4.0,12.0,24,0.00,,---,0.00,299.00,VWS V14.01,2013-05-04 01:16:00,
2013-05-03 18:21:00,68.5,30.3,30.13,NE,47,4.0,12.0,24,0.00,,---,0.00,281.00,VWS V14.01,2013-05-04 01:21:00,
2013-05-03 18:26:00,68.2,32.0,30.13,NE,39,4.0,12.0,26,0.00,,---,0.00,269.00,VWS V14.01,2013-05-04 01:26:00,
2013-05-03 18:31:00,67.9,30.8,30.13,NE,44,7.0,9.0,25,0.00,,---,0.00,253.00,VWS V14.01,2013-05-04 01:31:00,
2013-05-03 18:36:00,67.7,31.6,30.13,NE,38,7.0,12.0,26,0.00,,---,0.00,234.00,VWS V14.01,2013-05-04 01:36:00,
2013-05-03 18:41:00,67.7,31.6,30.13,NE,44,4.0,12.0,26,0.00,,---,0.00,216.00,VWS V14.01,2013-05-04 01:41:00,
2013-05-03 18:46:00,67.9,31.8,30.13,NE,38,4.0,12.0,26,0.00,,---,0.00,199.00,VWS V14.01,2013-05-04 01:46:00,
2013-05-03 18:51:00,67.8,30.7,30.13,NE,47,6.0,12.0,25,0.00,,---,0.00,188.00,VWS V14.01,2013-05-04 01:51:00,
2013-05-03 18:56:00,67.1,30.1,30.13,NE,45,3.0,12.0,25,0.00,,---,0.00,165.00,VWS V14.01,2013-05-04 01:56:00,
2013-05-03 19:01:00,67.0,30.0,30.13,NE,43,5.0,7.0,25,0.00,,---,0.00,146.00,VWS V14.01,2013-05-04 02:01:00,
2013-05-03 19:06:00,66.6,29.7,30.12,NE,44,6.0,9.0,25,0.00,,---,0.00,128.00,VWS V14.01,2013-05-04 02:06:00,
2013-05-03 19:11:00,66.3,29.5,30.13,NE,34,3.0,9.0,25,0.00,,---,0.00,111.00,VWS V14.01,2013-05-04 02:11:00,
2013-05-03 19:16:00,66.5,29.6,30.13,NE,39,9.0,9.0,25,0.00,,---,0.00,95.00,VWS V14.01,2013-05-04 02:16:00,
2013-05-03 19:21:00,66.5,29.6,30.13,NE,54,4.0,13.0,25,0.00,,---,0.00,79.00,VWS V14.01,2013-05-04 02:21:00,
2013-05-03 19:26:00,66.1,30.2,30.13,NE,55,5.0,13.0,26,0.00,,---,0.00,62.00,VWS V14.01,2013-05-04 02:26:00,
2013-05-03 19:31:00,65.3,28.6,30.13,NE,51,7.0,7.0,25,0.00,,---,0.00,53.00,VWS V14.01,2013-05-04 02:31:00,
2013-05-03 19:36:00,64.6,28.0,30.13,NE,48,2.0,7.0,25,0.00,,---,0.00,42.00,VWS V14.01,2013-05-04 02:36:00,
2013-05-03 19:41:00,64.1,28.5,30.13,SE,131,2.0,9.0,26,0.00,,---,0.00,28.00,VWS V14.01,2013-05-04 02:41:00,
2013-05-03 19:46:00,63.5,28.0,30.13,ESE,120,3.0,9.0,26,0.00,,---,0.00,23.00,VWS V14.01,2013-05-04 02:46:00,
2013-05-03 19:51:00,63.2,27.8,30.13,SSE,167,2.0,9.0,26,0.00,,---,0.00,19.00,VWS V14.01,2013-05-04 02:51:00,
2013-05-03 19:56:00,62.6,28.2,30.13,ESE,103,2.0,9.0,27,0.00,,---,0.00,14.00,VWS V14.01,2013-05-04 02:56:00,
2013-05-03 20:01:00,62.0,28.5,30.12,ESE,115,3.0,3.0,28,0.00,,---,0.00,11.00,VWS V14.01,2013-05-04 03:01:00,
2013-05-03 20:06:00,61.5,29.0,30.13,SW,236,2.0,5.0,29,0.00,,---,0.00,7.00,VWS V14.01,2013-05-04 03:06:00,
2013-05-03 20:11:00,61.1,28.6,30.13,WSW,239,1.0,5.0,29,0.00,,---,0.00,5.00,VWS V14.01,2013-05-04 03:11:00,
2013-05-03 20:16:00,60.8,29.2,30.12,SSW,202,3.0,5.0,30,0.00,,---,0.00,0.00,VWS V14.01,2013-05-04 03:16:00,
2013-05-03 20:21:00,60.4,29.6,30.12,WSW,250,3.0,6.0,31,0.00,,---,0.00,0.00,VWS V14.01,2013-05-04 03:21:00,
2013-05-03 20:26:00,60.2,30.2,30.13,SW,235,1.0,6.0,32,0.00,,---,0.00,0.00,VWS V14.01,2013-05-04 03:26:00,
2013-05-03 20:31:00,59.8,29.9,30.13,SW,223,1.0,2.0,32,0.00,,---,0.00,0.00,VWS V14.01,2013-05-04 03:31:00,
2013-05-03 20:36:00,59.6,30.5,30.13,WSW,249,3.0,5.0,33,0.00,,---,0.00,0.00,VWS V14.01,2013-05-04 03:36:00,
2013-05-03 20:41:00,59.3,31.0,30.13,WSW,248,2.0,5.0,34,0.00,,---,0.00,0.00,VWS V14.01,2013-05-04 03:41:00,
2013-05-03 20:46:00,59.1,30.8,30.13,SW,232,1.0,5.0,34,0.00,,---,0.00,0.00,VWS V14.01,2013-05-04 03:46:00,
2013-05-03 20:51:00,58.8,31.2,30.13,SW,232,0.0,5.0,35,0.00,,---,0.00,0.00,VWS V14.01,2013-05-04 03:51:00,
2013-05-03 20:56:00,58.5,31.0,30.13,SW,218,0.0,5.0,35,0.00,,---,0.00,0.00,VWS V14.01,2013-05-04 03:56:00,
2013-05-03 21:01:00,58.3,30.8,30.13,SW,218,0.0,1.0,35,0.00,,---,0.00,0.00,VWS V14.01,2013-05-04 04:01:00,
2013-05-03 21:06:00,57.9,31.1,30.13,SW,220,0.0,1.0,36,0.00,,---,0.00,0.00,VWS V14.01,2013-05-04 04:06:00,
2013-05-03 21:11:00,57.6,30.9,30.13,SW,219,0.0,2.0,36,0.00,,---,0.00,0.00,VWS V14.01,2013-05-04 04:11:00,
2013-05-03 21:16:00,57.3,31.3,30.13,SW,214,0.0,2.0,37,0.00,,---,0.00,0.00,VWS V14.01,2013-05-04 04:16:00,
2013-05-03 21:21:00,57.1,31.1,30.13,SW,214,0.0,2.0,37,0.00,,---,0.00,0.00,VWS V14.01,2013-05-04 04:21:00,
2013-05-03 21:26:00,56.4,31.1,30.13,SW,214,0.0,2.0,38,0.00,,---,0.00,0.00,VWS V14.01,2013-05-04 04:26:00,
2013-05-03 21:31:00,55.2,31.3,30.13,SW,217,0.0,1.0,40,0.00,,---,0.00,0.00,VWS V14.01,2013-05-04 04:31:00,
2013-05-03 21:36:00,54.2,31.6,30.13,WSW,239,2.0,2.0,42,0.00,,---,0.00,0.00,VWS V14.01,2013-05-04 04:36:00,
2013-05-03 21:41:00,53.4,31.5,30.13,West,263,2.0,3.0,43,0.00,,---,0.00,0.00,VWS V14.01,2013-05-04 04:41:00,
2013-05-03 21:46:00,52.9,31.6,30.13,West,262,1.0,3.0,44,0.00,,---,0.00,0.00,VWS V14.01,2013-05-04 04:46:00,
2013-05-03 21:51:00,52.4,31.1,30.14,West,261,2.0,3.0,44,0.00,,---,0.00,0.00,VWS V14.01,2013-05-04 04:51:00,
2013-05-03 21:56:00,52.0,31.3,30.13,WSW,256,0.0,3.0,45,0.00,,---,0.00,0.00,VWS V14.01,2013-05-04 04:56:00,
2013-05-03 22:01:00,51.8,31.1,30.14,WSW,256,0.0,0.0,45,0.00,,---,0.00,0.00,VWS V14.01,2013-05-04 05:01:00,
2013-05-03 22:06:00,51.5,31.4,30.14,WSW,256,0.0,1.0,46,0.00,,---,0.00,0.00,VWS V14.01,2013-05-04 05:06:00,
2013-05-03 22:11:00,51.4,31.3,30.14,NNE,24,0.0,2.0,46,0.00,,---,0.00,0.00,VWS V14.01,2013-05-04 05:11:00,
2013-05-03 22:16:00,51.3,31.2,30.14,NW,323,0.0,2.0,46,0.00,,---,0.00,0.00,VWS V14.01,2013-05-04 05:16:00,
2013-05-03 22:21:00,51.1,31.6,30.14,WNW,296,2.0,2.0,47,0.00,,---,0.00,0.00,VWS V14.01,2013-05-04 05:21:00,
2013-05-03 22:26:00,50.8,31.8,30.14,West,273,2.0,3.0,48,0.00,,---,0.00,0.00,VWS V14.01,2013-05-04 05:26:00,
2013-05-03 22:31:00,50.5,31.6,30.14,West,273,2.0,2.0,48,0.00,,---,0.00,0.00,VWS V14.01,2013-05-04 05:31:00,
2013-05-03 22:36:00,50.3,31.4,30.14,West,273,1.0,3.0,48,0.00,,---,0.00,0.00,VWS V14.01,2013-05-04 05:36:00,
2013-05-03 22:41:00,50.3,31.4,30.15,West,273,2.0,3.0,48,0.00,,---,0.00,0.00,VWS V14.01,2013-05-04 05:41:00,
2013-05-03 22:46:00,50.3,31.4,30.14,WSW,253,2.0,3.0,48,0.00,,---,0.00,0.00,VWS V14.01,2013-05-04 05:46:00,
2013-05-03 22:51:00,50.2,31.3,30.15,WSW,253,0.0,3.0,48,0.00,,---,0.00,0.00,VWS V14.01,2013-05-04 05:51:00,
2013-05-03 22:56:00,50.1,31.2,30.14,WSW,253,0.0,3.0,48,0.00,,---,0.00,0.00,VWS V14.01,2013-05-04 05:56:00,
2013-05-03 23:01:00,49.8,30.9,30.14,West,260,1.0,1.0,48,0.00,,---,0.00,0.00,VWS V14.01,2013-05-04 06:01:00,
2013-05-03 23:06:00,49.6,30.7,30.14,West,261,0.0,1.0,48,0.00,,---,0.00,0.00,VWS V14.01,2013-05-04 06:06:00,
2013-05-03 23:11:00,49.4,31.1,30.14,West,279,0.0,3.0,49,0.00,,---,0.00,0.00,VWS V14.01,2013-05-04 06:11:00,
2013-05-03 23:16:00,49.3,31.0,30.14,West,268,0.0,3.0,49,0.00,,---,0.00,0.00,VWS V14.01,2013-05-04 06:16:00,
2013-05-03 23:21:00,49.4,31.1,30.14,West,278,1.0,3.0,49,0.00,,---,0.00,0.00,VWS V14.01,2013-05-04 06:21:00,
2013-05-03 23:26:00,49.7,30.8,30.14,West,260,0.0,3.0,48,0.00,,---,0.00,0.00,VWS V14.01,2013-05-04 06:26:00,
2013-05-03 23:31:00,50.2,31.3,30.14,WSW,253,3.0,3.0,48,0.00,,---,0.00,0.00,VWS V14.01,2013-05-04 06:31:00,
2013-05-03 23:36:00,50.1,30.7,30.14,WNW,284,3.0,4.0,47,0.00,,---,0.00,0.00,VWS V14.01,2013-05-04 06:36:00,
2013-05-03 23:41:00,50.1,30.7,30.14,West,275,4.0,4.0,47,0.00,,---,0.00,0.00,VWS V14.01,2013-05-04 06:41:00,
2013-05-03 23:46:00,50.2,31.3,30.14,SW,216,0.0,4.0,48,0.00,,---,0.00,0.00,VWS V14.01,2013-05-04 06:46:00,
2013-05-03 23:51:00,50.1,30.7,30.14,West,278,1.0,4.0,47,0.00,,---,0.00,0.00,VWS V14.01,2013-05-04 06:51:00,
2013-05-03 23:56:00,49.8,30.9,30.14,West,281,1.0,4.0,48,0.00,,---,0.00,0.00,VWS V14.01,2013-05-04 06:56:00,